Content
SEND FEEDBACK

Daily
Averages
Monthly
Summary
United States of America

RAHWAY, NEW JERSEY


Home > North America > United States > New Jersey
Elevation: 20 feet     Latitude: 40 36N     Longitude: 074 16W

WEATHER
 
SELECT A DAY
Number of Records: 189,642;   Date Range: 1/1/95 - 7/29/14
 
SHARE

PRINT THIS DATA

[ ← Previous Day ]
WEATHER ALMANAC - FEBRUARY 5, 2013
[ Next Day → ]
[ °C ]   °F
Weather ElementAverageHighLow
Temperature29.6 °F32 °F (6:51 pm)26.6 °F (6:58 am)
Dewpoint26.1 °F30.2 °F (11:58 pm)23 °F (1:51 am)
Humidity86.6 %93 % (6:18 am)79 % (12:51 pm)
Barometer29.94 in29.98 in (10:46 am)29.91 in (2:51 pm)
Wind Speed5.6 mph10.4 mph (11:28 am)
Weather ElementAverage
Visibility5.2 mi
Wind DirectionENE (53.2 °)

Weather ElementTotal
Precipitation0.04 in
Heating Degree Days35.7 (Base 65)
Averaged from 37 records on February 5, 2013
WEATHER CONDITIONS BREAKOUT
WIND DIRECTION BREAKOUT
WEATHER BY HOUR - FEBRUARY 5, 2013
[ °C ]   °F
Local TimeTemperatureDewpointHumidityBarometerVisibilityWind DirectionWind SpeedGust SpeedPrecipitationEventsConditions
1:51 AM28.0 °F23.0 °F81 %29.95 in9.0 miCalm0.00 inSnowLight Snow
2:51 AM28.0 °F24.1 °F85 %29.94 in9.0 miCalm0.00 inSnowLight Snow
3:51 AM28.0 °F24.1 °F85 %29.94 in6.0 miCalm0.00 inSnowLight Snow
4:51 AM28.0 °F25.0 °F88 %29.92 in7.0 miCalm0.01 inSnowLight Snow
5:51 AM28.9 °F25.0 °F85 %29.93 in8.0 miNNE (30°)3.5 mph0.00 inSnowLight Snow
6:18 AM28.4 °F26.6 °F93 %29.93 in4.0 miNNE (20°)3.5 mph0.00 inSnowLight Snow
6:28 AM28.4 °F26.6 °F93 %29.93 in4.0 miNorth (10°)4.6 mph0.00 inSnowLight Snow
6:42 AM28.4 °F26.6 °F93 %29.94 in4.0 miNNE (20°)5.8 mph0.00 inSnowLight Snow
6:51 AM28.0 °F25.0 °F88 %29.94 in4.0 miNNE (20°)6.9 mph0.00 inSnowLight Snow
6:58 AM26.6 °F24.8 °F93 %29.95 in5.0 miNNE (30°)9.2 mph0.00 inSnowLight Snow
7:51 AM27.0 °F23.0 °F85 %29.96 in6.0 miNorth (10°)9.2 mph0.00 inSnowLight Snow
8:51 AM28.0 °F24.1 °F85 %29.96 in6.0 miNNE (20°)9.2 mph0.00 inSnowLight Snow
9:18 AM28.4 °F24.8 °F86 %29.97 in6.0 miNNE (20°)8.1 mph0.00 inSnowLight Snow
9:45 AM28.4 °F24.8 °F86 %29.97 in6.0 miNorth (10°)9.2 mph0.00 inSnowLight Snow
9:51 AM28.9 °F24.1 °F82 %29.97 in6.0 miNorth (10°)9.2 mph0.00 inSnowLight Snow
10:46 AM28.4 °F24.8 °F86 %29.98 in6.0 miNorth (10°)8.1 mph0.00 inSnowLight Snow
10:51 AM28.9 °F25.0 °F85 %29.98 in6.0 miNorth (10°)9.2 mph0.00 inSnowLight Snow
11:28 AM30.2 °F24.8 °F80 %29.97 in6.0 miNorth (360°)10.4 mph0.00 inSnowLight Snow
11:51 AM30.0 °F25.0 °F82 %29.96 in7.0 miNNE (20°)9.2 mph0.00 inOvercast
11:58 AM30.2 °F24.8 °F80 %29.96 in6.0 miNorth (10°)6.9 mphHaze
12:51 PM30.9 °F25.0 °F79 %29.95 in7.0 miNorth (10°)6.9 mphOvercast
1:37 PM30.2 °F26.6 °F86 %29.93 in6.0 miNNE (30°)6.9 mph0.00 inSnowLight Snow
1:51 PM30.9 °F26.1 °F82 %29.93 in4.0 miNE (40°)8.1 mph0.00 inSnowLight Snow
2:51 PM30.9 °F26.1 °F82 %29.91 in7.0 miNorth (10°)6.9 mph0.00 inOvercast
3:51 PM30.9 °F26.1 °F82 %29.91 in5.0 miNE (50°)3.5 mph0.00 inSnowLight Snow
4:51 PM30.9 °F26.1 °F82 %29.91 in5.0 miNNE (20°)5.8 mph0.00 inHaze
5:51 PM30.9 °F26.1 °F82 %29.91 in6.0 miNNE (20°)5.8 mphHaze
6:51 PM32.0 °F27.0 °F82 %29.92 in4.0 miNorth (10°)4.6 mph0.00 inSnowLight Snow
7:51 PM30.9 °F28.0 °F89 %29.91 in4.0 miNorth (10°)4.6 mph0.00 inSnowLight Snow
7:58 PM30.2 °F28.4 °F93 %29.92 in3.0 miNorth (360°)5.8 mph0.00 inSnowLight Snow
8:24 PM30.2 °F28.4 °F93 %29.91 in3.0 miNNE (20°)5.8 mph0.01 inSnowLight Snow
8:47 PM30.2 °F28.4 °F93 %29.91 in3.0 miNNE (20°)4.6 mph0.01 inSnowLight Snow
8:51 PM30.9 °F28.0 °F89 %29.91 in3.0 miNorth (360°)4.6 mph0.01 inSnowLight Snow
9:51 PM30.9 °F28.9 °F92 %29.92 in3.0 miNNE (20°)4.6 mph0.00 inSnowLight Snow
10:51 PM30.9 °F28.9 °F92 %29.92 in3.0 miNNE (30°)4.6 mph0.00 inSnowLight Snow
11:51 PM32.0 °F30.0 °F92 %29.93 in3.0 miCalm0.00 inSnowLight Snow
11:58 PM32.0 °F30.2 °F93 %29.92 in3.0 miNorth (350°)3.5 mph0.00 inSnowLight Snow
Hourly data recorded from KEWR, located miles away from Rahway, New Jersey







STORIES FROM OUR PARTNERS